#timestamp,LO_Frequency,Hit,StdDev 
1562299215.1,286046993.5,N
1562299216.0,286046993.5,N
1562299235.8,286046993.7,N
1562299255.7,286046994.1,N
1562299275.5,286046992.2,N
1562299295.3,286046996.1,N
1562299315.2,286046996.3,N
1562299335.0,286046994.5,N
1562299335.9,286046994.5,N
1562299355.8,286046994.4,N
1562299375.6,286046994.5,N
1562299395.4,286046994.3,N
1562299415.3,286046995.5,N
1562299435.1,286046998.5,N
1562299455.9,286046999.1,N
1562299475.7,286046998.1,N
1562299495.5,286046998.2,N
1562299515.4,286046999.7,N
1562299535.2,286047001.6,N
1562299555.0,286047001.5,N
1562299555.9,286047001.5,N
1562299575.8,286047001.7,N
1562299595.6,286046998.2,N
1562299615.5,286047002.1,N
1562299635.3,286047005.4,N
1562299655.1,286047003.6,N
1562299675.9,286047001.8,N
1562299695.7,286047003.2,N
1562299715.5,286047005.6,N
1562299735.4,286047002.2,N
1562299755.2,286047002.3,N
1562299775.1,286047004.4,N
1562299776.0,286047004.4,N
1562299795.8,286047001.5,N
1562299815.6,286047001.9,N
1562299835.5,286047005.3,N
1562299855.3,286047004.3,N
1562299875.1,286047001.3,N
1562299895.9,286047002.7,N
1562299915.7,286046998.1,N
1562299935.6,286046997.2,N
1562299955.4,286046995.7,N
1562299975.2,286046993.8,N
1562299995.1,286046992.2,N
1562299996.0,286046992.2,N
1562300015.8,286046991.6,N
1562300035.7,286046992.9,N
1562300055.5,286046988.8,N
1562300075.3,286046989.5,N
1562300095.2,286046991.5,N
1562300115.9,286046991.0,N
1562300135.7,286046989.5,N
1562300155.6,286046988.0,N
1562300175.4,286046984.6,N
1562300195.3,286046981.0,N
1562300215.1,286046981.6,N
1562300216.0,286046981.6,N
1562300235.8,286046980.4,N
1562300255.7,286046979.8,N
1562300275.5,286046981.6,N
1562300295.3,286046982.5,N
1562300315.2,286046987.7,N
1562300335.0,286046985.6,N
1562300335.9,286046985.6,N
1562300355.8,286046987.8,N
1562300375.6,286046988.3,N
1562300395.4,286046984.3,N
1562300415.3,286046986.5,N
1562300435.1,286046986.4,N
1562300455.9,286046984.0,Y
1562300475.7,286046996.8,P
1562300495.5,286046997.0,N
1562300515.4,286046997.8,N
1562300535.2,286046995.3,N
1562300555.0,286046998.6,N
1562300555.9,286046998.6,N
1562300575.8,286046999.6,N
1562300595.6,286046998.3,N
1562300615.5,286047000.1,N
1562300635.3,286046998.2,N
1562300655.1,286046997.8,N
1562300675.9,286046996.7,N
1562300695.7,286046995.2,N
1562300715.5,286046996.0,N
1562300735.4,286046996.8,N
1562300755.2,286046997.9,N
1562300775.1,286046998.6,N
1562300776.0,286046998.6,N
1562300795.8,286046999.2,N
1562300815.6,286046996.1,N
1562300835.5,286046994.2,N
1562300855.3,286046992.0,Y
1562300875.1,286046995.3,P
1562300895.9,286046993.7,P
1562300915.7,286046998.0,N
1562300935.6,286046999.1,N
1562300955.4,286046997.1,N
1562300975.2,286046998.5,N
1562300995.1,286046999.0,N
1562300996.0,286046999.0,N
1562301015.8,286046998.9,N
1562301035.7,286046997.4,N
1562301055.5,286046995.0,Y
1562301075.3,286046997.7,P
1562301095.2,286046995.1,P
1562301115.0,286046997.0,N
1562301115.9,286046997.0,N
1562301135.8,286046996.9,Y
1562301155.6,286047001.2,P
1562301175.4,286047004.4,N
1562301195.3,286047005.8,N
1562301215.1,286047004.7,N
1562301235.8,286047005.3,N
1562301255.7,286047005.9,N
1562301275.5,286047004.4,N
1562301295.4,286047003.8,N
1562301315.2,286047005.5,N
1562301335.0,286047006.7,N
1562301335.9,286047006.7,N
1562301355.8,286047006.2,N
1562301375.6,286047006.6,N
1562301395.4,286047008.1,Y
1562301415.3,286047007.1,P
1562301435.1,286047007.4,P
1562301455.9,286047006.9,P
1562301475.7,286047009.2,Y
1562301495.5,286047000.7,P
1562301515.4,286047001.9,N
1562301535.2,286047005.5,N
1562301555.1,286047011.9,Y
1562301556.0,286047011.9,P
1562301575.8,286047008.1,N
1562301595.6,286047010.2,P
1562301615.5,286047011.3,Y
1562301635.3,286047004.9,P
1562301655.2,286047007.2,P
1562301675.9,286047004.7,P
1562301695.7,286047003.0,N
1562301715.6,286047007.0,Y
1562301735.4,286047003.4,P
1562301755.2,286047006.5,P
1562301775.1,286047010.8,P
1562301776.0,286047011.9,Y
1562301795.8,286047006.3,P
1562301815.7,286047006.5,P
1562301835.5,286047006.6,P
1562301855.3,286047006.6,Y
1562301875.2,286047006.0,P
1562301895.0,286047007.1,P
1562301895.9,286047007.1,P
1562301915.8,286047008.5,Y
1562301935.6,286047001.3,P
1562301955.4,286047006.9,N
1562301975.3,286047004.5,N
1562301995.1,286047007.4,Y
1562302015.9,286047002.4,P
1562302035.7,286047001.0,N
1562302055.5,286047003.1,N
1562302075.4,286047007.3,Y
1562302095.2,286047010.4,P
1562302115.1,286047014.2,P
1562302116.0,286047014.2,N
1562302135.8,286047019.6,Y
1562302155.6,286047006.8,P
1562302175.5,286047010.1,P
1562302195.3,286047011.2,P
1562302215.2,286047008.5,Y
1562302235.9,286046993.7,P
1562302255.7,286046990.4,N
1562302275.6,286046991.5,N
1562302295.4,286046994.2,N
1562302315.2,286046995.4,N
1562302335.1,286046998.5,N
1562302336.0,286046998.5,N
1562302355.8,286046998.2,N
1562302375.7,286047001.6,N
1562302395.5,286047002.7,N
1562302415.3,286046998.4,N
1562302435.2,286047000.8,N
1562302455.0,286046998.2,N
1562302455.9,286046998.2,N
1562302475.8,286047001.4,N
1562302495.6,286047006.0,N
1562302515.4,286047007.5,N
1562302535.3,286047012.3,N
1562302555.1,286047014.7,N
1562302575.8,286047014.2,N
1562302595.7,286047017.1,N
1562302615.5,286047014.8,N
1562302635.4,286047011.0,N
1562302655.2,286047006.8,N
1562302675.1,286047004.1,N
1562302676.0,286047004.1,N
1562302695.8,286047002.7,N
1562302715.6,286046996.8,N
1562302735.5,286046994.1,N
1562302755.3,286046989.4,N
1562302775.1,286046984.1,N
1562302795.9,286046985.2,N
